Home   Weather   Guelph   Past weeks
Flag for Canada

Past Weather in Guelph, Ontario, Canada — Yesterday and Last 2 Weeks

Now
79 °F

Broken clouds.


Feels Like: 81 °F
Forecast: 83 / 67 °F
Wind: 10 mph from South

Location: Waterloo Well

Current Time: Jul 18, 2019 at 2:09:51 pm

Latest Report: Jul 18, 2019 at 1:09 pm


Visibility: 9 mi

Pressure: 29.95 "Hg

Humidity: 74%

Dew Point: 70 °F

Location of GuelphLocation

Past Weather in Guelph — Graph

°F

Guelph Temperature Yesterday

Maximum temperature yesterday: 82 °F (at 3:00 pm)
Minimum temperature yesterday: 68 °F (at 11:00 pm)
Average temperature yesterday: 74 °F

High & Low Weather Summary for the Past Weeks

 TemperatureHumidityPressure
High90 °F (Jul 5, 2:55 pm)100% (Jul 4, 4:00 am)30.14 "Hg (Jul 4, 4:00 am)
Low46 °F (Jul 15, 5:44 am)39% (Jul 8, 3:00 pm)29.75 "Hg (Jul 11, 12:38 pm)
Average71 °F77%29.97 "Hg
* Reported Jul 3 12:01 pm — Jul 18 12:59 pm, Guelph. Weather by CustomWeather, © 2019

Note: Actual official high and low records may vary slightly from our data, if they occured in-between our weather recording intervals... More about our weather records

Advertising

Guelph Weather History for the Previous 24 Hours

Scroll right to see more
 ConditionsComfort  
Time TempWeatherWind HumidityBarometerVisibility
12:59 pm
Thu, Jul 18
77 °FCloudy.9 mph79%29.95 "Hg9 mi
12:00 pm77 °FOvercast.8 mph79%29.95 "Hg9 mi
11:00 am75 °FMostly cloudy.7 mph83%29.96 "Hg9 mi
10:00 am73 °FOvercast.8 mph89%29.96 "Hg9 mi
9:08 am72 °FMostly cloudy.6 mph94%29.96 "Hg7 mi
8:00 am72 °FOvercast.7 mph94%29.95 "Hg8 mi
7:47 am70 °FMore clouds than sun.5 mph100%29.96 "Hg8 mi
7:39 am70 °FLow clouds.7 mph100%29.96 "Hg7 mi
7:21 am70 °FFog.7 mph100%29.96 "Hg5 mi
7:10 am70 °FFog.3 mph100%29.96 "Hg4 mi
7:00 am70 °FFog.3 mph100%29.95 "Hg3 mi
6:00 am68 °FFog.5 mph100%29.94 "Hg3 mi
5:57 am68 °FFog.5 mph100%29.94 "Hg3 mi
5:15 am68 °FFog.6 mph100%29.94 "Hg2 mi
4:00 am68 °FFog.No wind100%29.94 "Hg1 mi
3:40 am66 °FFog.2 mph100%29.93 "Hg1 mi
3:13 am64 °FFog.3 mph100%29.93 "Hg4 mi
2:36 am64 °FFog.No wind100%29.94 "Hg5 mi
2:04 am64 °FFog.3 mph100%29.94 "Hg5 mi
1:00 am64 °FFog.5 mph100%29.94 "Hg6 mi
12:38 am64 °FClear.No wind100%29.94 "Hg7 mi
12:00 am66 °FClear.2 mph100%29.93 "Hg9 mi
11:00 pm
Wed, Jul 17
68 °FClear.3 mph94%29.92 "Hg9 mi
10:00 pm73 °FClear.5 mph78%29.92 "Hg9 mi
9:00 pm75 °FClear.3 mph78%29.91 "Hg9 mi
8:00 pm79 °FSunny.7 mph74%29.89 "Hg9 mi
7:00 pm82 °FScattered clouds.5 mph66%29.87 "Hg9 mi
6:00 pm82 °FSunny.7 mph66%29.87 "Hg9 mi
5:07 pm81 °FScattered clouds.7 mph70%29.86 "Hg9 mi
4:44 pm81 °FThundershowers. Broken clouds.7 mph70%29.86 "Hg9 mi
4:38 pm79 °FCloudy.9 mph70%29.87 "Hg9 mi
4:19 pm81 °FThundershowers. Broken clouds.7 mph70%29.86 "Hg9 mi
4:00 pm82 °FThundershowers. Sunny.6 mph66%29.86 "Hg9 mi
3:51 pm81 °FThundershowers. Passing clouds.6 mph70%29.87 "Hg9 mi
3:00 pm82 °FSunny.3 mph74%29.88 "Hg9 mi
2:00 pm79 °FSunny.5 mph74%29.90 "Hg9 mi
Weather by CustomWeather, © 2019

See weather overview